Location: Cluj-Napoca
(46.7712°N, 23.6236°E)
Time: 05:46:51
(UTC+02:00)

AAUSAT CUBESAT 2 - Visible Passes

Search period start: 29 November 2021 00:00
Search period end: 09 December 2021 00:00
Orbit: 570 x 588 km, 97.5° (Epoch: 28 November)

Date Brightness Start Highest point End Pass type
(mag) Time Alt. Az. Time Alt. Az. Time Alt. Az.
29 Nov ? 05:30:23 10° NNE 05:34:27 63° E 05:38:31 10° S visible
29 Nov ? 07:07:06 10° NNW 07:09:19 14° WNW 07:11:31 10° W visible
29 Nov ? 17:59:26 10° WSW 18:01:37 14° W 18:03:48 10° WNW visible
30 Nov ? 05:35:05 10° NNE 05:39:11 71° ESE 05:43:16 10° S visible
30 Nov ? 07:12:06 10° NNW 07:13:59 13° WNW 07:15:51 10° W visible
30 Nov ? 18:04:37 10° WSW 18:06:23 12° W 18:08:09 10° WNW visible
01 Dec ? 05:39:48 10° NNE 05:43:54 81° ESE 05:48:01 10° S visible
01 Dec ? 07:17:10 10° NW 07:18:38 12° WNW 07:20:05 10° W visible
01 Dec ? 18:10:00 10° WSW 18:11:10 11° W 18:12:19 10° WNW visible
02 Dec ? 05:44:31 10° NNE 05:48:37 90° W 05:52:43 10° SSW visible
03 Dec ? 04:17:23 10° E 04:17:27 10° E 04:17:31 10° E visible
03 Dec ? 05:49:13 10° N 05:53:19 80° WNW 05:57:25 10° SSW visible
04 Dec ? 04:20:51 10° ENE 04:22:13 11° E 04:23:35 10° ESE visible
04 Dec ? 05:53:56 10° N 05:58:02 71° WNW 06:02:07 10° SSW visible
05 Dec ? 04:25:05 10° ENE 04:26:59 13° E 04:28:53 10° ESE visible
05 Dec ? 05:58:40 10° N 06:02:43 63° WNW 06:06:47 10° SSW visible
06 Dec ? 04:29:26 10° NE 04:31:45 14° E 04:34:02 10° SE visible
06 Dec ? 06:03:23 10° N 06:07:25 56° WNW 06:11:26 10° SSW visible
07 Dec ? 04:33:52 10° NE 04:36:29 16° E 04:39:05 10° SE visible
07 Dec ? 06:08:07 10° N 06:12:06 49° WNW 06:16:04 10° SSW visible
08 Dec ? 04:38:21 10° NE 04:41:14 18° E 04:44:05 10° SE visible
08 Dec ? 06:12:51 10° N 06:16:46 44° WNW 06:20:41 10° SW visible
